| time (UTC) | temp C | wind direction | speed KPH | gust KPH | rain 1hr cm | rain 24hr cm | rain mn cm | humidity % | barometer mb |
| 20260508020018 | 13 | 0 | 6.4 | 12.9 | 0.00 | 0.00 | 0.00 | 31 | 1010.2 |
| 20260508013017 | 14 | 0 | 9.7 | 14.5 | 0.00 | 0.00 | 0.00 | 29 | 1009.9 |
| 20260508010017 | 15 | 338 | 11.3 | 20.9 | 0.00 | 0.00 | 0.00 | 27 | 1009.9 |
| 20260508003017 | 16 | 315 | 12.9 | 22.5 | 0.00 | 0.00 | 0.00 | 25 | 1009.6 |
| 20260508000016 | 16 | 315 | 17.7 | 32.2 | 0.00 | 0.00 | 0.00 | 25 | 1009.7 |
| 20260507233037 | 17 | 293 | 12.9 | 30.6 | 0.00 | 0.00 | 0.00 | 24 | 1009.9 |
| 20260507230015 | 17 | 315 | 17.7 | 37.0 | 0.00 | 0.00 | 0.00 | 23 | 1010.1 |
| 20260507223016 | 16 | 315 | 16.1 | 38.6 | 0.00 | 0.00 | 0.00 | 25 | 1010.2 |
| 20260507220015 | 17 | 315 | 14.5 | 33.8 | 0.00 | 0.00 | 0.00 | 26 | 1010.5 |
| 20260507213015 | 16 | 338 | 17.7 | 33.8 | 0.00 | 0.00 | 0.00 | 24 | 1010.8 |
| 20260507210015 | 16 | 315 | 17.7 | 37.0 | 0.00 | 0.00 | 0.00 | 25 | 1011.0 |
| 20260507203018 | 16 | 315 | 14.5 | 32.2 | 0.00 | 0.00 | 0.00 | 25 | 1011.1 |
| 20260507200017 | 15 | 315 | 17.7 | 37.0 | 0.00 | 0.00 | 0.00 | 29 | 1011.6 |
| 20260507193018 | 15 | 315 | 14.5 | 37.0 | 0.00 | 0.00 | 0.00 | 28 | 1011.8 |
| 20260507190018 | 14 | 315 | 17.7 | 30.6 | 0.00 | 0.00 | 0.00 | 29 | 1011.8 |
| 20260507183018 | 13 | 315 | 12.9 | 41.8 | 0.00 | 0.00 | 0.00 | 30 | 1012.2 |
| 20260507180018 | 13 | 23 | 12.9 | 30.6 | 0.00 | 0.00 | 0.00 | 32 | 1012.4 |
| 20260507173017 | 12 | 45 | 11.3 | 29.0 | 0.00 | 0.00 | 0.00 | 31 | 1012.5 |
| 20260507170018 | 12 | 23 | 11.3 | 41.8 | 0.00 | 0.00 | 0.00 | 33 | 1012.8 |
| 20260507163017 | 11 | 68 | 9.7 | 22.5 | 0.00 | 0.00 | 0.00 | 36 | 1013.0 |
| 20260507160038 | 11 | 68 | 12.9 | 22.5 | 0.00 | 0.00 | 0.00 | 38 | 1013.2 |
| 20260507153017 | 10 | 0 | 9.7 | 19.3 | 0.00 | 0.00 | 0.00 | 40 | 1013.2 |
| 20260507150017 | 10 | 90 | 8.0 | 20.9 | 0.00 | 0.00 | 0.00 | 45 | 1013.1 |
| 20260507143017 | 10 | 23 | 6.4 | 16.1 | 0.00 | 0.00 | 0.00 | 43 | 1013.2 |
| 20260507140017 | 9 | 90 | 4.8 | 12.9 | 0.00 | 0.00 | 0.00 | 53 | 1013.1 |
| 20260507133016 | 8 | 113 | 6.4 | 14.5 | 0.00 | 0.00 | 0.00 | 55 | 1013.0 |
| 20260507130017 | 6 | 45 | 1.6 | 6.4 | 0.00 | 0.00 | 0.00 | 66 | 1013.4 |
| 20260507123016 | 3 | 0.0 | 3.2 | 0.00 | 0.00 | 0.00 | 76 | 1013.2 | |
| 20260507120017 | 1 | 0.0 | 3.2 | 0.00 | 0.00 | 0.00 | 79 | 1013.0 | |
| 20260507113017 | 1 | 0.0 | 6.4 | 0.00 | 0.00 | 0.00 | 78 | 1013.2 | |
| 20260507110016 | 1 | 45 | 1.6 | 8.0 | 0.00 | 0.00 | 0.00 | 78 | 1013.2 |
| 20260507103017 | 2 | 0.0 | 1.6 | 0.00 | 0.00 | 0.00 | 74 | 1013.4 | |
| 20260507100016 | 1 | 0.0 | 1.6 | 0.00 | 0.00 | 0.00 | 75 | 1013.4 | |
| 20260507093017 | 1 | 90 | 3.2 | 4.8 | 0.00 | 0.00 | 0.00 | 76 | 1013.5 |
| 20260507090016 | 2 | 0.0 | 3.2 | 0.00 | 0.00 | 0.00 | 74 | 1013.7 | |
| 20260507083016 | 2 | 90 | 1.6 | 6.4 | 0.00 | 0.00 | 0.00 | 71 | 1013.6 |
| 20260507080016 | 3 | 0.0 | 1.6 | 0.00 | 0.00 | 0.00 | 70 | 1014.0 | |
| 20260507073016 | 3 | 90 | 3.2 | 6.4 | 0.00 | 0.00 | 0.00 | 72 | 1014.1 |
| 20260507070016 | 4 | 0.0 | 0.0 | 0.00 | 0.00 | 0.00 | 67 | 1014.4 | |
| 20260507063016 | 4 | 0.0 | 1.6 | 0.00 | 0.00 | 0.00 | 65 | 1014.8 | |
| 20260507060015 | 4 | 0.0 | 0.0 | 0.00 | 0.00 | 0.00 | 66 | 1015.1 | |
| 20260507053015 | 4 | 0.0 | 0.0 | 0.00 | 0.00 | 0.00 | 64 | 1015.1 | |
| 20260507050038 | 4 | 0.0 | 3.2 | 0.00 | 0.00 | 0.00 | 63 | 1015.0 | |
| 20260507043037 | 3 | 68 | 1.6 | 4.8 | 0.00 | 0.00 | 0.00 | 63 | 1015.0 |
| 20260507040016 | 3 | 0.0 | 0.0 | 0.00 | 0.00 | 0.00 | 61 | 1015.2 | |
| 20260507033017 | 3 | 0.0 | 4.8 | 0.00 | 0.00 | 0.00 | 58 | 1015.2 | |
| 20260507030017 | 4 | 68 | 1.6 | 6.4 | 0.00 | 0.00 | 0.00 | 58 | 1015.5 |
| 20260507023016 | 5 | 45 | 4.8 | 6.4 | 0.00 | 0.00 | 0.00 | 57 | 1015.3 |